User: anonymous   Login
Location: Fort Wayne
(41.1310°N, 85.1290°W)
Time: 22:53:23
(UTC-04:00)
Language:

Meteor 2-10 Rocket - Orbit

View from above orbital plane
View from above orbital plane
View from above satellite
View from above satellite

Ground track
Ground track

The orbit data is extracted from the following two-line orbital elements,

1 14453U 83109B   15214.12971910  .00000076  00000-0  25972-4 0  9993
2 14453 081.1655 075.4422 0103995 245.2659 113.7669 14.24609130649988
Epoch (UTC): 02 August 2015 03:06:47
Eccentricity: 0.0103995
inclination: 81.1655°
perigee height: 735 km
apogee height: 884 km
right ascension of ascending node: 75.4422°
argument of perigee: 245.2659°
revolutions per day: 14.24609130
mean anomaly at epoch: 113.7669°
orbit number at epoch: 64998

The dashed part of the orbit path shows where the satellite is in the earth's shadow,  

DLR